Theta_e
314 309 308 307 307 307 306 311 313 310 312 317 318 319 319 319 319 319 319 319 320 320 319 319 319 321 322 320 320 323 323 324 325 328 329 328 329 328 328 328 328 327 326 327 327 324 325 326 325 325 325 324 324 324 325 325 325 326 325 324 324 324 324
309 306 308 306 306 307 306 309 314 313 311 314 317 317 318 319 318 319 320 320 321 321 322 321 321 322 323 322 322 321 321 321 323 326 328 328 328 329 328 328 328 327 326 326 326 325 325 326 326 325 324 323 322 323 324 324 325 325 324 323 324 324 323
308 307 308 306 307 308 307 307 310 314 315 315 315 314 315 316 316 317 319 319 319 320 320 318 317 320 322 321 319 318 319 321 322 323 325 326 326 327 327 328 327 327 327 326 327 327 326 326 325 325 324 323 322 322 322 322 322 323 323 322 322 323 323
308 308 307 306 307 309 310 309 310 313 317 315 313 311 310 309 309 311 315 316 314 314 311 310 313 316 318 317 316 317 320 322 323 323 325 325 324 325 326 328 327 327 327 327 327 326 325 324 324 323 322 321 321 320 320 320 319 319 320 320 319 321 322
308 308 307 306 307 308 308 309 309 311 314 313 311 309 306 305 305 306 308 309 308 307 306 307 312 315 316 316 316 316 317 319 321 321 323 323 324 324 325 326 326 325 325 325 325 325 324 323 323 321 320 319 319 318 318 318 317 316 316 316 316 318 319
309 307 308 306 307 307 306 308 311 314 314 313 311 308 305 306 306 306 306 306 306 306 306 306 307 311 315 315 312 310 310 310 311 313 314 317 320 322 323 323 322 322 322 322 323 324 324 323 322 321 320 319 319 318 318 317 316 315 314 314 315 315 316
313 308 307 306 306 306 305 306 311 314 314 311 308 307 306 305 306 306 306 306 306 306 306 306 305 306 312 315 310 307 306 305 306 306 307 308 311 314 316 316 315 314 315 316 317 320 321 322 321 321 320 319 319 318 317 317 316 315 313 313 313 314 316
317 309 307 307 306 305 305 305 307 310 310 308 306 306 305 305 306 306 306 305 305 305 305 306 306 305 307 310 308 305 305 305 305 305 305 305 305 305 306 307 308 307 308 309 311 314 317 319 320 319 319 318 317 317 316 315 315 314 312 312 312 313 316
319 312 307 307 306 305 305 305 305 306 306 306 305 306 305 305 306 305 305 305 304 305 304 304 305 305 305 306 306 304 305 304 304 304 304 304 304 303 303 304 306 306 304 306 308 308 310 314 318 318 317 317 317 316 316 315 315 313 311 311 311 311 314
321 315 308 306 307 305 304 305 305 305 305 305 305 305 305 305 306 305 305 305 304 304 304 304 304 304 304 305 304 304 304 303 303 303 303 303 303 303 303 304 306 307 305 305 305 304 304 308 314 317 317 317 316 316 316 316 315 313 311 310 308 307 308
322 318 311 307 306 305 305 305 305 305 305 305 305 305 305 305 305 305 305 305 306 305 305 304 304 304 304 304 303 303 303 303 304 303 304 305 305 305 305 306 308 307 306 305 304 304 303 304 308 312 314 315 316 316 315 315 316 314 311 309 306 305 304
322 320 313 307 306 307 308 309 307 305 305 305 305 305 305 305 305 306 306 306 306 306 306 305 305 305 305 304 305 304 304 304 305 305 305 306 306 306 306 306 307 306 306 306 306 306 305 306 309 310 310 312 314 315 315 314 315 314 310 307 304 303 302
322 322 316 308 306 309 311 311 309 306 305 305 305 305 305 306 306 306 306 306 306 306 307 306 306 306 305 305 306 306 305 306 307 306 305 306 306 307 307 307 307 306 307 308 307 307 307 307 309 309 309 310 310 312 314 315 314 312 308 305 304 303 304
321 322 319 311 307 309 310 309 307 307 306 306 306 306 306 306 306 307 307 307 307 307 307 307 307 307 307 307 307 306 306 307 310 308 306 306 306 306 307 307 307 307 307 308 308 308 308 308 308 309 309 309 309 310 312 313 312 309 305 305 305 304 304
321 322 320 314 308 308 309 309 308 307 307 307 306 307 307 307 307 307 308 308 308 309 309 309 309 308 309 309 308 308 307 308 310 309 307 309 308 307 307 307 307 307 307 308 309 310 310 310 310 309 309 309 310 310 311 311 311 309 306 305 305 305 305
322 321 320 317 311 308 309 309 309 308 307 307 307 307 307 308 308 308 309 310 311 311 312 313 313 313 312 312 311 312 311 309 309 309 310 312 311 309 309 310 308 307 307 308 309 311 312 312 311 311 312 312 311 311 312 312 311 310 308 308 307 306 308
324 322 320 318 314 310 308 308 309 308 307 307 307 308 308 308 308 309 310 311 312 313 315 316 317 317 316 315 315 315 315 314 312 312 313 314 314 313 313 313 312 309 308 308 309 310 313 314 312 312 313 313 313 314 313 312 311 311 309 310 309 308 309
325 324 321 318 316 314 311 310 309 308 309 309 309 308 309 309 310 311 313 313 312 313 316 318 316 316 317 317 317 317 317 317 317 316 316 316 315 315 314 315 315 313 311 310 311 311 312 313 312 311 311 310 311 314 314 312 311 311 311 310 311 311 310
325 324 321 318 317 317 316 314 312 309 310 311 312 311 311 312 312 314 315 316 315 313 314 316 316 315 315 317 318 318 317 317 316 316 316 317 317 316 316 316 316 314 313 313 313 312 311 310 310 309 310 310 310 313 314 313 311 311 311 311 311 311 310
325 324 322 319 318 318 319 319 316 313 311 312 313 313 313 313 314 316 317 318 318 316 314 315 317 317 315 315 316 316 316 316 315 315 315 316 317 317 317 317 317 316 315 314 313 312 310 309 309 309 309 310 310 312 313 312 311 312 312 312 311 310 310
325 325 324 322 321 320 320 321 320 318 315 313 313 312 313 314 314 316 317 317 316 316 316 318 318 318 316 315 315 317 317 317 317 317 316 316 316 317 318 318 318 318 317 316 315 314 313 312 312 311 310 309 310 311 311 310 311 312 311 312 311 310 310
325 324 325 325 324 322 322 322 321 320 318 317 315 313 312 315 317 317 317 317 314 314 316 318 318 317 317 316 316 317 318 318 318 318 318 317 317 318 318 318 318 318 318 318 316 316 315 314 315 314 312 311 312 311 310 310 310 311 311 312 312 311 311
324 324 324 323 322 322 322 322 321 319 319 319 318 316 314 315 317 318 318 318 316 315 315 316 316 316 315 315 315 316 318 318 318 318 318 318 318 318 318 318 318 317 317 317 317 317 315 315 316 315 314 314 313 311 311 311 310 311 311 312 311 311 310
323 323 323 322 320 320 320 320 319 319 320 320 319 319 317 316 316 317 319 319 317 316 315 315 315 315 314 314 314 316 317 318 317 317 317 318 319 319 319 319 319 318 317 317 317 317 317 316 316 315 315 314 313 312 312 310 309 310 310 311 310 310 309
322 322 322 322 321 320 320 319 319 319 320 320 320 320 319 318 318 318 319 319 318 317 317 317 317 316 315 314 315 316 317 317 316 316 316 317 319 320 320 320 319 319 318 318 318 317 317 316 316 315 315 314 313 313 312 310 309 309 310 310 310 309 309
321 321 321 321 321 321 320 320 320 320 320 320 319 319 319 318 318 318 319 319 317 317 317 317 318 317 316 316 316 317 317 316 315 315 315 314 315 316 317 318 318 318 317 316 317 319 318 317 316 316 315 314 312 312 311 311 310 309 309 310 310 308 308
318 319 320 320 320 321 320 320 321 320 320 319 318 318 318 318 318 317 317 316 316 316 317 317 317 317 317 318 317 317 316 315 315 314 312 310 309 309 310 311 312 314 314 312 313 315 317 317 316 315 314 313 312 311 311 310 309 309 310 310 309 307 306
312 313 315 316 318 319 319 319 318 317 317 317 317 317 316 315 315 315 315 315 316 317 317 317 317 318 318 318 317 315 313 312 312 311 307 304 303 303 303 304 305 307 309 309 308 310 313 316 316 314 313 312 312 311 310 310 309 309 309 309 307 306 305
309 308 309 311 312 313 313 314 313 313 314 313 313 313 313 312 312 313 314 315 317 317 315 315 315 315 316 315 313 311 310 309 310 308 304 302 302 301 302 302 303 305 307 308 307 307 311 315 315 314 313 312 311 310 308 308 308 308 308 307 306 306 305
308 308 308 308 310 310 310 309 311 312 312 312 312 313 313 313 313 313 313 314 315 314 312 312 311 310 311 310 309 309 310 311 312 309 305 305 305 303 303 302 303 304 305 305 306 308 312 314 314 313 312 310 309 308 307 307 307 307 307 306 306 305 304
308 309 308 308 309 308 307 307 309 311 312 312 312 311 311 311 311 312 312 312 312 311 310 310 310 309 309 308 307 310 312 313 313 311 308 308 307 306 305 304 304 303 304 306 309 311 314 314 312 310 309 308 307 306 306 307 306 306 306 305 304 304 303
307 308 309 309 308 308 307 307 308 310 311 311 310 309 308 307 307 307 306 306 306 305 305 306 306 306 307 307 307 310 313 313 313 312 311 310 309 308 307 306 305 305 306 307 308 310 312 312 310 308 308 307 306 306 306 306 305 304 304 303 303 303 303
306 307 308 309 308 308 309 309 308 307 308 309 307 306 305 305 304 302 302 302 302 302 302 302 302 302 303 303 303 306 311 313 313 312 312 310 310 309 308 307 306 306 305 305 305 306 308 309 308 308 307 306 305 306 306 305 304 303 303 303 303 303 302
306 306 307 308 308 308 308 308 308 307 308 308 308 306 305 306 304 302 302 302 302 302 302 302 303 302 302 302 301 302 308 313 313 312 311 310 309 309 308 307 306 306 305 305 305 305 306 306 307 307 306 305 305 305 304 304 304 303 303 302 302 300 299
305 306 306 306 307 307 308 308 307 307 308 308 308 306 306 306 305 303 303 303 303 303 303 303 304 303 303 303 301 301 304 308 309 309 311 310 309 308 307 307 306 305 305 305 305 305 305 305 305 305 305 304 304 304 303 303 303 302 301 299 298 297 297
302 304 305 306 306 307 308 309 308 307 308 307 306 305 306 306 305 304 304 304 304 304 304 304 304 304 303 303 303 302 302 303 305 308 309 309 308 307 307 306 305 305 304 304 304 304 304 304 304 304 304 303 303 303 303 302 301 299 297 296 296 296 296
299 300 302 303 305 305 306 308 309 309 308 307 307 306 306 306 305 305 305 304 304 304 304 304 304 303 303 303 303 302 302 303 306 309 309 308 307 307 306 305 304 304 304 304 303 303 303 302 302 302 302 302 301 301 299 297 296 296 295 295 296 296 296
Wind_Speed
12 12 11 10 10 10 11 11 9 8 9 8 7 6 6 5 5 6 5 5 5 4 4 2 2 1 1 1 1 1 1 0 1 2 4 5 4 5 6 6 7 9 8 7 6 5 6 4 4 2 1 1 1 2 2 2 1 2 2 3 3 1 1
11 12 11 10 10 11 12 12 10 9 9 10 9 8 7 7 6 6 5 5 4 4 5 3 2 2 1 1 1 1 2 2 3 3 3 4 4 4 5 6 5 5 5 6 7 7 6 2 4 4 3 2 2 2 2 2 1 1 1 3 3 2 1
12 12 11 11 11 11 12 13 12 10 9 10 10 9 8 7 7 7 6 5 4 4 4 4 2 2 1 1 1 1 1 2 3 3 2 3 4 5 5 5 4 3 2 2 4 5 3 1 3 5 5 5 6 7 6 5 4 2 1 2 3 3 2
12 11 11 12 11 11 12 12 12 11 10 11 11 11 10 9 9 9 8 7 6 5 5 6 6 5 3 3 3 2 2 2 2 1 2 2 2 3 4 4 3 2 2 2 3 3 3 3 4 6 7 7 9 9 9 9 8 7 5 4 5 4 4
11 11 11 12 12 12 12 12 12 12 12 12 12 12 12 13 13 13 12 11 9 9 9 9 9 9 7 6 5 4 4 3 3 3 3 3 4 4 5 4 3 2 3 3 3 3 3 4 5 6 7 8 9 9 10 11 11 10 9 9 8 8 7
11 10 10 11 12 12 12 12 12 12 12 13 13 13 13 14 14 13 13 12 10 9 9 10 10 11 9 7 6 6 6 6 6 5 5 5 6 6 6 5 4 3 3 3 4 3 3 5 5 6 7 8 9 9 9 9 9 10 10 9 9 9 9
10 10 10 9 11 11 11 12 13 13 13 13 13 13 13 13 13 12 11 11 10 8 8 9 9 10 10 8 7 8 8 9 9 9 9 8 8 8 7 6 5 5 4 4 4 3 3 4 5 6 6 7 7 7 7 6 7 7 8 8 8 7 6
8 10 10 9 9 10 11 12 13 13 14 14 14 13 12 12 12 11 11 10 9 8 8 8 8 9 10 8 7 9 9 10 10 10 10 10 10 10 9 8 7 6 6 6 5 4 3 3 4 5 6 6 6 6 6 6 6 6 6 6 7 6 4
8 9 10 10 9 10 11 12 13 14 14 14 13 12 12 11 11 11 11 10 10 9 9 9 9 9 9 9 8 9 9 10 10 11 11 10 10 10 10 9 8 7 7 6 5 5 5 4 4 5 5 4 4 5 5 5 5 5 5 5 4 3 2
8 8 9 10 9 11 12 13 14 14 13 13 13 12 12 11 11 11 11 11 11 10 10 10 10 10 10 9 9 9 9 10 10 10 11 10 11 11 10 10 9 7 7 7 6 6 6 6 5 5 4 2 2 3 4 5 4 4 4 4 4 3 2
10 8 9 10 10 12 14 14 15 15 13 11 12 13 12 11 11 11 11 11 11 11 11 10 10 10 10 10 9 9 10 10 10 10 11 11 11 11 10 10 9 8 8 8 8 8 7 7 6 4 3 2 2 1 2 4 5 4 3 3 4 3 2
11 10 11 12 12 13 14 12 15 16 14 12 13 13 12 11 11 11 10 10 10 10 10 10 10 10 10 10 10 9 9 10 10 9 10 10 10 10 9 9 8 8 9 9 9 9 8 8 7 4 3 3 3 2 2 3 4 4 3 2 2 1 1
12 12 12 13 15 15 13 11 14 16 15 13 13 13 12 11 10 10 10 9 9 8 8 9 9 9 9 9 8 8 8 8 7 7 7 7 7 8 7 6 6 6 7 7 7 8 7 7 7 6 5 3 4 4 3 2 4 5 4 2 2 0 1
12 13 13 14 17 17 14 12 14 16 16 15 14 13 13 12 11 10 9 8 8 7 7 7 7 7 7 7 7 7 7 7 5 4 5 4 4 5 5 4 3 3 4 5 6 6 5 6 6 6 6 5 4 5 3 3 5 4 4 3 1 1 2
13 14 14 15 17 18 16 13 13 15 15 15 15 14 14 13 12 11 10 9 8 7 6 6 6 6 6 5 6 6 6 7 6 5 4 3 2 3 3 3 1 1 1 3 5 4 4 5 4 4 5 5 4 5 4 4 4 4 3 1 1 1 3
14 15 16 16 18 19 18 14 12 13 15 14 15 15 15 14 13 12 11 10 9 8 7 6 5 5 4 4 5 5 5 7 7 7 5 4 1 0 1 2 1 1 1 1 3 4 4 5 4 4 5 5 4 4 4 4 4 4 4 2 2 1 3
14 15 17 18 19 20 20 16 13 13 15 14 15 15 15 15 14 13 13 11 10 9 8 7 5 4 4 4 5 5 5 5 6 7 7 5 4 3 1 0 1 1 2 2 2 3 4 4 4 3 4 4 4 4 4 4 4 3 3 2 2 2 3
13 15 18 19 20 20 19 17 15 16 16 16 16 16 16 16 15 15 14 13 12 11 9 8 7 6 5 5 5 5 5 5 5 6 6 7 7 7 6 3 3 3 3 2 2 2 3 4 4 3 3 3 2 2 2 3 2 2 3 2 1 1 2
12 15 18 19 20 20 19 18 17 18 17 17 17 17 16 16 15 15 15 14 13 11 10 10 10 9 7 6 6 7 7 7 8 9 9 9 8 8 8 7 7 7 7 5 5 5 4 4 4 3 3 4 3 2 1 1 1 1 2 2 1 2 2
12 14 16 18 20 21 20 18 18 19 19 19 18 18 18 17 17 16 15 14 13 12 12 13 14 13 10 9 9 8 9 10 10 11 12 12 11 11 11 11 11 10 9 9 10 10 9 10 8 6 6 6 5 4 2 1 1 1 1 1 1 2 3
11 12 14 15 18 22 22 20 19 20 21 20 19 19 19 18 18 18 18 17 16 16 15 15 15 14 13 12 11 10 10 10 10 10 11 12 13 12 12 13 13 12 11 11 12 13 12 12 11 10 10 8 7 5 4 3 2 2 2 2 2 2 2
10 11 12 12 14 17 19 20 20 21 21 21 21 20 20 19 19 20 20 20 19 19 18 17 16 14 12 12 11 11 10 10 9 10 11 12 13 13 13 14 15 14 13 12 12 14 13 12 13 13 11 9 9 9 7 5 4 3 3 4 4 4 4
7 9 10 11 12 12 13 16 19 21 21 21 21 20 20 19 18 18 18 18 19 20 19 20 20 19 18 16 14 13 12 10 10 11 12 13 13 13 13 13 14 14 14 13 13 14 14 13 13 14 11 10 11 12 10 8 6 5 4 5 5 4 5
5 7 7 8 10 11 12 13 15 19 20 21 20 19 19 19 17 16 15 16 18 20 20 22 22 23 24 22 19 15 12 11 11 11 11 10 9 9 9 9 11 13 13 14 15 15 15 15 15 15 13 12 13 13 12 9 8 7 7 7 7 7 6
3 5 6 6 8 10 11 12 12 14 16 17 17 18 18 17 16 16 16 17 18 18 19 21 20 19 20 20 18 14 11 10 9 8 8 7 6 7 7 8 9 11 12 14 15 15 15 16 17 17 16 15 14 14 13 10 10 10 11 11 11 11 9
2 4 4 5 6 8 9 10 11 12 14 15 16 17 17 17 17 18 18 18 18 17 17 18 16 15 15 14 13 11 9 9 8 7 7 7 7 7 7 7 7 8 10 12 13 14 14 13 14 15 16 16 16 15 13 12 12 12 13 13 13 11 11
2 4 4 5 6 7 8 9 11 13 15 16 16 18 17 16 18 18 18 17 15 14 14 13 12 11 11 10 10 10 9 9 8 8 9 10 9 10 9 9 8 8 10 11 11 13 13 12 12 13 13 15 16 15 13 13 13 13 13 14 13 11 13
3 4 5 6 7 7 8 9 10 11 13 14 15 16 16 14 14 13 14 14 13 11 10 9 9 9 10 10 10 9 9 9 7 8 10 10 10 10 10 10 9 10 10 10 10 12 13 12 12 11 11 13 14 14 14 14 14 14 14 14 14 13 14
4 5 6 6 6 6 7 6 6 6 6 7 8 9 8 8 8 9 10 11 11 10 8 8 8 9 10 10 10 9 8 7 6 6 7 7 7 7 7 7 7 8 9 9 10 12 12 11 10 10 10 11 13 15 16 15 15 15 15 14 14 15 16
4 5 7 7 6 7 7 6 6 6 5 6 6 6 7 7 8 9 10 11 10 10 9 9 9 9 10 10 9 8 6 6 6 6 6 5 5 5 5 5 6 8 9 10 10 11 12 10 9 9 10 11 13 16 16 16 15 14 14 14 15 16 18
5 6 8 8 9 10 10 9 8 8 8 9 10 9 9 10 10 11 12 13 13 12 11 10 10 10 10 10 9 8 7 7 7 6 6 5 6 6 6 6 6 7 9 9 9 9 10 9 9 9 9 10 13 16 16 16 15 14 14 16 18 19 21
8 8 8 8 9 10 10 10 10 10 10 11 11 11 11 11 12 13 13 14 13 13 11 11 11 11 11 10 9 8 7 7 8 7 6 6 7 7 6 6 6 7 8 8 8 8 8 9 8 8 8 9 11 14 16 16 15 15 16 18 19 21 23
11 10 9 9 9 10 9 9 10 11 11 11 12 12 12 12 12 12 12 12 11 10 9 8 8 8 8 9 9 9 8 8 8 8 7 7 7 7 7 6 6 6 6 6 6 6 8 8 8 8 9 10 12 15 16 16 16 16 17 19 21 23 25
14 14 12 11 11 12 12 12 13 13 13 12 13 14 13 13 13 12 12 11 10 9 8 7 6 5 5 5 6 8 9 9 9 9 8 8 7 7 7 6 5 5 5 4 4 4 6 7 8 10 12 13 14 15 16 17 18 19 20 21 21 21 21
18 17 16 15 13 13 13 14 16 16 15 14 16 17 16 14 14 13 12 11 9 8 7 6 5 5 5 4 4 6 8 10 11 10 10 9 8 8 8 7 5 5 5 4 4 5 6 8 10 12 13 14 16 16 16 18 20 20 18 17 16 16 15
21 21 21 21 20 19 16 15 16 17 18 18 19 20 18 16 15 15 13 11 10 10 9 8 8 7 6 5 4 4 7 10 11 11 10 9 10 10 9 7 6 6 5 5 6 6 8 9 11 13 14 15 16 17 17 18 18 17 15 14 14 14 13
26 25 25 24 25 25 23 20 19 20 20 20 21 22 21 19 18 17 15 14 13 12 10 9 9 8 8 7 6 5 6 8 10 11 11 11 11 11 9 7 7 7 6 6 7 8 9 10 10 11 12 13 14 14 14 13 13 13 14 13 13 12 12
Wind_Direction
138 131 123 116 115 113 109 109 107 106 114 117 114 109 101 96 95 94 95 100 107 109 111 145 174 169 167 112 106 130 149 240 187 196 224 225 216 216 215 217 235 237 236 240 230 228 235 198 145 121 82 266 233 196 189 192 223 275 329 26 50 97 173
135 122 115 111 110 110 108 112 116 115 119 122 118 115 105 100 104 107 109 111 112 98 81 85 132 136 130 111 101 125 159 162 168 184 203 211 205 201 205 208 221 229 236 239 224 223 242 221 143 131 109 82 60 86 135 154 205 258 346 34 49 57 40
130 120 113 111 110 111 108 109 116 117 118 121 121 119 110 105 114 117 120 127 127 102 67 53 63 88 110 101 63 27 89 143 174 194 188 189 193 191 190 191 193 195 212 228 201 201 226 226 132 130 115 98 83 82 94 96 80 58 33 43 49 39 21
126 121 115 114 115 116 114 111 118 123 125 125 121 117 110 105 111 118 121 123 121 108 86 77 79 83 94 94 81 77 72 72 76 77 89 118 149 159 159 160 173 183 185 178 166 168 163 136 128 119 112 103 95 93 96 94 85 72 64 63 56 43 37
123 121 117 118 119 121 121 119 121 126 130 128 121 115 110 105 106 109 111 111 110 107 98 93 94 92 87 85 92 100 99 95 88 77 78 85 83 92 116 127 135 144 145 147 150 159 152 143 138 128 118 107 102 101 97 93 90 82 75 71 66 60 57
124 122 123 124 125 126 125 123 125 130 133 132 127 121 117 113 109 108 109 109 107 104 101 100 103 100 87 74 85 97 100 104 101 95 96 98 99 104 106 99 94 102 111 123 128 139 150 146 143 137 126 116 112 112 106 98 94 87 80 76 76 76 76
129 127 132 131 130 130 129 128 131 136 139 139 136 131 125 120 115 111 110 110 108 107 108 109 109 109 97 82 91 103 104 103 101 101 102 103 109 114 110 102 99 106 116 129 121 111 136 151 152 146 133 124 122 123 124 117 104 92 83 78 79 82 87
138 136 140 141 138 134 132 136 137 139 142 142 141 137 131 125 118 113 107 106 108 109 115 117 114 114 109 101 106 111 107 105 104 104 102 103 107 110 112 109 105 113 120 118 112 108 122 145 156 159 149 139 136 134 133 125 108 95 87 81 80 80 79
154 149 151 152 147 137 135 139 140 140 143 144 144 140 133 126 118 112 107 104 106 107 114 119 115 115 112 106 109 111 109 109 108 108 105 105 106 106 112 113 109 118 123 116 120 132 139 139 146 161 164 158 151 146 146 138 115 99 90 79 69 73 74
167 162 165 164 155 145 142 141 141 142 142 144 147 142 134 128 120 117 114 111 109 108 110 112 112 112 108 103 106 108 109 109 108 109 108 106 107 107 112 114 108 110 116 115 120 129 135 136 143 166 181 206 207 173 166 151 120 104 108 97 71 43 10
181 175 177 175 165 154 147 143 143 143 142 147 152 146 139 134 128 124 122 119 116 114 112 110 110 108 105 103 103 104 107 106 103 106 107 106 108 107 111 115 111 112 117 116 115 115 122 122 124 152 173 199 236 225 182 159 130 110 110 114 106 80 38
194 186 182 182 175 162 155 151 148 144 145 153 157 152 145 141 136 132 130 127 124 121 119 117 114 111 108 106 102 100 105 105 101 104 106 107 107 104 107 111 112 118 117 114 115 117 118 114 107 112 130 155 177 145 124 153 148 144 142 151 172 167 72
202 197 190 187 182 173 168 167 157 148 149 157 160 159 154 148 145 141 137 135 133 131 129 127 124 121 117 114 110 108 108 103 98 102 104 102 102 100 98 96 100 113 112 111 118 118 119 120 115 110 105 116 145 138 121 128 151 179 204 209 199 241 15
208 203 199 194 190 185 179 175 165 157 157 161 163 165 162 157 155 153 149 147 147 146 143 141 138 134 133 134 133 132 127 114 105 110 110 100 96 96 97 94 89 98 104 109 113 109 112 114 106 103 99 95 115 121 112 124 144 180 221 227 176 20 12
211 207 205 201 200 197 189 184 177 169 166 166 168 171 169 168 167 165 163 161 161 162 161 160 158 153 155 159 158 157 152 145 143 142 128 113 106 105 106 107 96 98 117 119 116 119 124 111 94 99 104 97 103 105 100 119 136 150 169 180 83 27 11
214 210 210 206 206 205 199 196 193 184 178 175 176 178 178 179 177 175 175 174 174 176 175 172 167 167 172 176 180 185 181 176 173 164 145 126 127 161 102 108 152 190 180 149 138 149 149 129 120 124 113 99 97 97 97 114 123 133 141 108 83 96 339
215 213 212 208 211 211 207 208 209 200 191 185 184 186 188 188 186 185 187 189 191 191 189 184 177 181 192 197 200 199 199 200 198 192 185 178 184 198 196 258 278 228 197 195 176 168 161 148 139 129 109 88 82 78 77 99 115 130 147 132 119 171 310
214 212 210 209 213 214 212 212 213 207 199 193 190 191 194 195 193 194 196 199 204 204 202 200 201 209 217 216 212 212 218 217 217 221 220 216 210 202 195 204 237 232 207 205 222 211 193 175 160 154 140 121 116 104 74 84 108 128 150 168 216 269 307
208 206 206 208 211 214 216 215 214 212 207 202 199 199 201 202 203 203 202 205 210 214 220 224 228 231 228 223 225 233 242 244 249 256 253 246 238 226 218 217 221 217 204 203 213 216 224 217 192 186 185 174 180 199 184 108 141 145 155 182 262 298 305
206 205 206 209 210 213 217 218 218 217 214 211 209 209 210 213 214 213 210 212 217 226 234 235 235 237 236 237 244 250 255 261 266 263 254 250 251 250 247 245 241 231 219 217 218 215 219 222 215 212 213 207 207 221 227 208 198 207 200 223 262 271 288
209 210 213 215 216 218 220 221 222 222 221 218 218 219 221 223 224 224 224 226 232 239 241 236 233 236 241 249 255 256 260 267 270 263 252 249 253 258 260 260 259 253 244 237 236 236 234 235 242 246 237 230 235 245 248 239 244 248 232 251 276 276 286
207 213 218 220 225 228 228 226 224 223 222 223 227 230 230 228 229 231 234 239 244 245 244 240 237 237 241 251 259 257 258 265 270 268 260 253 257 265 269 270 269 266 263 257 251 250 248 251 261 259 252 255 261 257 251 251 258 255 249 270 278 279 292
205 215 219 220 224 227 229 226 221 219 221 226 232 235 236 234 234 235 237 242 248 249 247 247 249 249 250 255 262 259 256 263 270 270 264 259 261 267 269 270 269 268 269 268 262 254 248 248 254 255 256 262 260 257 258 255 250 247 256 270 267 271 295
205 213 216 216 218 218 222 222 218 218 222 227 233 237 240 241 239 238 237 238 245 250 252 255 257 257 254 254 256 256 256 262 266 262 259 258 257 258 258 258 262 266 268 267 264 257 250 247 250 253 257 258 260 267 269 254 237 245 261 265 262 269 286
209 218 216 213 216 217 220 223 223 225 227 230 234 238 241 242 239 238 236 237 243 250 256 260 260 257 252 248 246 245 245 249 252 252 254 252 243 244 246 243 250 263 267 264 262 262 257 251 250 254 256 257 261 268 271 263 254 261 271 271 270 273 278
229 242 237 233 232 228 227 227 227 229 231 232 234 238 241 242 241 242 243 245 249 252 254 255 252 247 240 234 231 227 226 233 237 239 244 245 240 240 241 242 248 261 268 268 267 268 268 262 257 257 256 255 256 257 264 271 270 271 278 277 275 275 276
260 265 262 256 250 247 244 239 237 241 242 242 243 245 246 245 243 244 249 252 249 246 243 238 231 225 218 214 214 214 220 231 235 239 246 247 247 245 243 245 247 252 268 279 275 268 270 272 267 259 250 249 253 254 260 267 268 272 278 276 270 270 276
279 276 271 265 260 254 252 250 253 255 252 249 251 252 252 251 245 238 240 241 233 224 221 211 204 205 202 204 212 220 232 240 235 239 247 246 244 245 244 245 245 245 254 265 266 265 270 274 268 254 240 240 247 250 255 261 266 272 275 272 269 273 284
274 274 271 271 267 260 255 256 257 254 239 234 239 240 237 233 223 212 217 221 211 201 203 201 200 203 204 211 222 229 235 232 215 219 233 232 232 238 239 242 248 247 246 250 258 265 268 268 262 248 238 240 244 246 249 255 264 272 274 274 278 285 293
271 265 261 262 259 252 250 248 243 229 204 191 190 185 179 182 189 195 203 209 207 207 212 213 212 213 214 218 223 219 211 203 201 216 231 235 243 252 255 254 252 252 256 260 261 262 260 255 244 233 231 236 241 245 250 257 266 274 279 283 289 295 301
265 264 263 262 256 251 249 243 231 211 188 177 177 178 177 181 189 196 203 211 219 224 224 222 222 223 221 221 216 205 199 200 207 222 243 256 264 273 276 275 266 258 260 259 256 255 250 235 218 218 225 230 237 246 254 262 271 279 285 290 295 299 303
255 256 258 258 251 246 244 236 221 199 184 182 189 191 190 195 204 209 214 220 225 228 227 224 223 221 220 221 216 207 204 211 216 219 228 244 261 272 273 271 264 253 249 251 249 245 234 215 200 206 216 220 235 252 262 271 279 285 290 295 299 302 304
246 241 244 250 242 230 226 227 221 209 202 201 206 207 203 205 211 213 212 211 211 215 219 219 217 216 215 216 216 213 211 216 219 213 209 220 241 255 258 258 253 246 247 253 250 237 224 214 209 219 228 235 250 264 274 279 283 287 293 298 301 303 306
243 235 234 239 238 229 224 226 226 223 216 207 203 205 203 200 204 209 209 209 210 213 217 220 224 227 225 221 221 215 211 215 217 210 204 203 208 227 243 246 245 249 257 262 254 234 222 222 229 238 245 253 262 270 278 282 284 288 294 298 301 303 306
253 245 238 236 238 239 236 234 231 227 222 215 211 211 207 201 202 206 207 209 214 220 229 243 256 263 263 259 247 222 215 222 222 212 203 193 186 206 231 240 245 259 264 260 251 238 230 234 242 249 255 262 268 273 277 282 286 291 295 297 298 299 298
264 258 251 245 243 244 244 243 237 230 228 226 222 220 219 215 213 214 217 225 235 242 251 262 271 277 277 272 263 237 227 233 230 218 204 189 189 209 231 244 255 263 263 260 257 255 256 257 257 259 263 267 270 274 278 284 290 294 298 298 296 295 293
268 264 261 256 252 251 250 247 240 235 234 230 225 224 225 224 221 220 223 231 235 236 245 259 268 273 275 274 267 248 230 228 224 213 198 189 199 220 241 255 260 262 261 260 261 268 277 278 274 271 272 274 277 282 287 292 295 297 300 300 297 295 292